Погода в Котельниче

Хотите узнать прогноз погоды в Котельниче? Тогда Вам сюда: Погода в Котельниче

Поиск расширенной информации на нашем сайте:

Полезная информация:

Новости сайта



02.01.2020
Опубликован Долгосрочный прогноз погоды по городам России и ближнего зарубежья на январь 2020 года.
Карты: Прогноз на январь и февраль 2020 года, Сравнение прогнозируемой аномалии приземной температуры воздуха на январь 2020 года по разным моделям.




Погода в Котельниче - сегодня

Время (UTC), дата Ветер
(°,м/с) 
Видим.   Явления Облачность Т
(°С)
Тd
(°С)
f(%) Тe
(°С)
Pmin
(гПа)
dP
(гПа)
Po
(мм)
O2
(г/м3)
Тmin Tmax R s Состояние
почвы
12 29.11.20 130 (ЮВ) 3-5{06}  20000 м    10/10 300 м 
[Sc]
-4.5 -7.3 81 -7  1044  0.2  770  316           
15 29.11.20 140 (ЮВ) 3-5{06}  10 км    10/10 300 м 
[Sc]
-3.8 -6.1 84 -6  1044.3  0.3  771  316    -3.8       
18 29.11.20 140 (ЮВ) 2-5{05}  10 км    10/10 300 м 
[Sc]
-3.8 -6.1 84 -5  1044.9  0.6  771  316           
21 29.11.20 140 (ЮВ) 3-5{05}  10 км    10/10 300 м 
[Sc]
-3.7 -5.9 85 -6  1045  0.1  771  316           
00 30.11.20 150 (ЮВ) 3-6{06}  10 км    10/10 300 м 
[Sc]
-3.4 -5.5 85 -6  1044.6  -0.4  771  315           
03 30.11.20 150 (ЮВ) 3-5{06}  10 км    10/10 300 м 
[Sc]
-3 -5 86 -5  1044.5  -0.1  771  315  -3.9      11  равномерный
сухой снег
100% 
06 30.11.20 160 (Ю) 3-5{07}  11000 м    10/10 300 м 
[Sc]
-2.7 -5 84 -5  1044.6  0.2  771  314           
09 30.11.20 160 (Ю) 3-6{07}  20000 м    4/4 600 м 
[Sc]
-1.6 -5.4 75 -4  1044  -0.6  771  313           
12 30.11.20 140 (ЮВ) 3-4{07}  20000 м    3/0 средняя 
[Ac trans]
-2.6 -7 72 -5  1043.1  -0.9  770  314           
15 30.11.20 160 (Ю) 4-9{09}  10 км    6/6 600 м 
[Sc]
-3.8 -7 78 -7  1042.4  -0.8  769  315    -1.4       
18 30.11.20 170 (Ю) 4-6{09}  10 км    ясно 
-5.7 -9.3 76 -9  1042.4  -0.1  769  318           
21 30.11.20 170 (Ю) 3-7{07}  10 км    3/0 средняя 
[Ac trans]
-6.7 -10.4 75 -9  1042.4  769  319           
00 01.12.20 170 (Ю) 4-7{08}  10 км    3/0 средняя 
[Ac trans]
-6.8 -11.1 71 -10  1042.2  -0.3  769  319           
03 01.12.20 170 (Ю) 3-6{09}  10 км    ясно 
-7.7 -11.9 72 -10  1042.3  0.1  769  320  -7.7      11  равномерный
сухой снег
100% 
06 01.12.20 170 (Ю) 3-6{08}  20000 м    4/0 верхняя 
[Ci fib]
-8.5 -12.4 73 -11  1043  0.6  770  321  -8.6         
09 01.12.20 180 (Ю) 3-7{09}  20000 м    4/0 верхняя 
[Ci fib]
-5.9 -11.6 64 -8  1042.5  -0.3  769  318           
12 01.12.20 170 (Ю) 3-6{07}  20000 м    6/0 средняя, верхняя 
[Ac trans|Ci fib]
-6.4 -11.3 68 -9  1042.2  -0.4  769  318           
15 01.12.20 180 (Ю) 3-6{08}  10 км    ясно 
-8.5 -12 76 -11  1042.2  769  321    -5.5       
21 01.12.20 180 (Ю) 4-8{08}  10 км    10/0 средняя 
[Ac As]
-9.3 -11.7 83 -13  1042.1  0.1  769  322           
00 02.12.20 200 (Ю) 3-6{08}  10 км    10/0 средняя 
[Ac As]
-7.9 -10.6 81 -11  1041.5  -0.5  768  320           
03 02.12.20 200 (Ю) 3-6{08}  10 км    10/3 600 м средняя 
[Sc|Ac As]
-7.6 -10.6 79 -10  1040.7  -0.8  768  319  -10.1      11  равномерный
сухой снег
100% 
06 02.12.20 200 (Ю) 3-6{08}  6000 м  слаб. снег  10/5 600 м средняя 
[Sc|Ac As]
-7.7 -10.5 80 -10  1040.7  768  319           
09 02.12.20 200 (Ю) 2-5{06}  8000 м  слаб. снег  10/10 300 м кучево-дожд. 
[Cb cap]
-7.1 -10.3 78 -9  1040.4  -0.2  768  319           
12 02.12.20 230 (ЮЗ) 2-3{07}  14000 м  {снег}  10/8 600 м средняя 
[Sc|Ac trans]
-7.3 -10.8 76 -9  1040.5  0.1  768  319           
15 02.12.20 220 (ЮЗ) 2-3{04}  10 км    10/10 600 м 
[Sc]
-8 -11 79 -10  1040.7  0.1  768  320    -6.9  0.6     
Время (UTC), дата Ветер
(°,м/с) 
Видим.   Явления Облачность Т
(°С)
Тd
(°С)
f(%) Тe
(°С)
Pmin
(гПа)
dP
(гПа)
Po
(мм)
O2
(г/м3)
Тmin Tmax R s Состояние
почвы

Для получения пояснительной информации подведите курсор к названию столбца.

ПОГОДА в Котельниче - архив

Всё, что Вы хотите узнать о погоде в Котельниче - удобно и подробно!

Выберите нужную дату (начиная с 1 января 2019* года) и нажмите кнопку "Найти".
Будут отображены архивные сводки погоды по пункту Котельнич, начиная с указанной даты.


Отображать данные в формате CSV (для использования в таблицах Excel)


Внимание! Наш архив погоды предназначен исключительно для личного некоммерческого использования в познавательных целях. Если Вам необходимы официальные справки о состоянии погоды (для производственных, юридических, коммерческих и т.п. целей), обращайтесь в органы Росгидромета.

*Примечание: данная дата относится к архиву по метеостанциям СССР (Россия, СНГ, Балтия).
Архив по метеостанциям Зарубежной Европы и Азии (кроме Китая) хранится 10 дней, по другим регионам земного шара (Китай, Африка, Америка, Австралия, Океания) - 1 день.

Котельнич - район местоположения метеостанции


Название, широта, долгота, высота метеостанции:
Котельнич 58.3°ш. 48.3°д. 127 м над ур. моря [Российская Федерация]

Дополнительная информация

В oтличие oт бoльшинства пoгoдных сайтoв мы публикуем пoдрoбную метеoинфoрмацию в детальнoм прoфессиoнальнoм фoрмате.

Характеристики температуры и влажнoсти вoздуха измеряются на высoте 2 м в тени вдали oт зданий и деревьев.
Скoрoсть ветра измеряется на высoте 10 м (на урoвне рoста челoвека скoрoсть ветра ниже в 1.5-2 раза). Если метеoстанция нахoдится в гoрoде или в лесу, тo скoрoсть ветра занижена на 2-4 м/с пo сравнению с oткрытым местoм. Скoрoсть ветра над акватoриями крупных рек и oзёр, а также на вершинах хoлмoв на 2-5 м/с выше, чем в oбычных услoвиях.
Атмoсфернoе давление в разных тoчках местнoсти мoжет значительнo oтличаться oт давления на метеoстанции, в зависимoсти oт услoвий рельефа (при пoдъёме на 10 м давление пoнижается примернo на 1 мм рт.ст.).